[[{"header":{"parameterUnit":"m.s-1","parameterCategory":1,"la1":30.2991,"la2":30.254,"lo1":-89.0895,"lo2":-89.0444,"dy":0.0017,"dx":0.0017,"nx":28,"ny":28,"refTime":"2023-09-03T09:00:00:Z","depth":0,"parameterNumber":2,"parameterNumberName":"U-component_of_WINDS"},"data":[0,0,0,0,0,0,0,0,0,0,0,0,0,0,0,0,0,0,0,0,0,0,0,0,0,0,0,0,0,0,0,0,0,0,0,0,0,0,0,0,0,0,0,0,0,0,0,0,0,0,0,0,0,0,0,0,0,0,-7.5973,-7.5973,0,-7.6029,-7.603,-7.6031,-7.5889,-7.5885,-7.588,-7.5876,-7.5929,-7.5934,-7.5939,0,0,0,0,0,0,0,0,0,0,0,0,0,-7.5736,-7.5741,-7.5973,-7.5973,-7.5974,-7.6029,-7.603,-7.6031,-7.589,-7.5885,-7.5879,-7.5874,-7.5927,-7.5933,-7.594,0,0,0,0,0,0,0,0,0,0,0,0,0,-7.5821,-7.5743,-7.5972,-7.5911,-7.5906,-7.6029,-7.603,-7.6031,-7.5891,-7.5884,-7.5878,-7.5872,-7.5925,-7.5933,-7.5941,-7.6125,0,0,-7.5966,-7.597,0,0,0,0,0,0,0,0,-7.5816,-7.5829,-7.5919,-7.5915,-7.591,-7.5946,-7.5966,-7.6062,-7.5893,-7.5897,-7.5876,-7.5868,-7.5939,-7.5946,-7.5971,-7.6127,-7.613,-7.5967,-7.5972,-7.5975,-7.5978,0,0,0,0,0,0,0,-7.581,-7.5826,-7.5995,-7.592,-7.5915,-7.5878,-7.5883,-7.5983,-7.5954,-7.5896,-7.5886,-7.5895,-7.5935,-7.5963,-7.5971,-7.613,-7.5967,-7.5974,-7.5979,-7.5982,-7.6438,-7.6445,0,0,0,0,0,0,-7.5813,-7.5822,-7.5993,-7.5996,-7.5846,-7.5888,-7.5893,-7.5941,-7.5953,-7.5948,-7.59,-7.5888,-7.5952,-7.5962,-7.5972,-7.6186,-7.5975,-7.5983,-7.5988,-7.6431,-7.6439,-7.6447,0,0,0,0,0,0,-7.5809,-7.583,-7.5991,-7.5907,-7.5924,-7.5899,-7.5954,-7.5945,-7.5973,-7.5956,-7.595,-7.5934,-7.5947,-7.5961,-7.6088,-7.6185,-7.5987,-7.5994,-7.6422,-7.6433,-7.6443,-7.6616,0,0,0,0,0,0,-7.5803,-7.5829,-7.59,-7.5909,-7.5929,-7.6107,-7.596,-7.5951,-7.5988,-7.5973,-7.5987,-7.5982,-7.5943,-7.6076,-7.6096,-7.6193,-7.6001,-7.6413,-7.6427,-7.644,-7.6601,-7.6631,-7.6657,0,0,0,0,0,-7.5795,-7.5946,-7.5904,-7.5926,-7.6018,-7.6113,-7.6124,-7.6078,-7.5997,-7.6067,-7.6056,-7.5982,-7.6173,-7.609,-7.6112,-7.6213,-7.6407,-7.6423,-7.6439,-7.6589,-7.6625,-7.6656,0,0,0,0,0,0,-7.5946,-7.5946,-7.59,-7.6059,-7.6088,-7.6089,-7.6176,-7.6118,-7.6169,-7.6152,-7.609,-7.6095,-7.6232,-7.6236,-7.6144,-7.639,-7.6276,-7.6297,-7.6382,-7.6417,-7.6444,-7.6438,-7.6008,0,0,0,0,0,-7.5999,-7.6078,-7.6073,-7.6213,-7.623,-7.6202,-7.6241,-7.6203,-7.6229,-7.624,-7.6238,-7.6265,-7.633,-7.6375,-7.6434,-7.6603,-7.6602,-7.6683,-7.6711,-7.6734,-7.6751,-7.6837,-7.6872,-7.65,-7.65,-7.6499,0,0,-7.6106,-7.6116,-7.617,-7.6244,-7.6262,-7.6343,-7.6212,-7.6304,-7.6362,-7.6253,-7.6372,-7.6373,-7.6398,-7.6546,-7.6611,-7.6553,-7.6854,-7.6754,-7.6773,-7.6777,-7.6857,-7.6892,-7.6924,-7.6511,-7.6509,-7.6507,0,0,-7.6343,-7.6361,-7.6478,-7.65,-7.6529,-7.6509,-7.6537,-7.6549,-7.6545,-7.6664,-7.6583,-7.6652,-7.6767,-7.6788,-7.6813,-7.7061,-7.6993,-7.7082,-7.7225,-7.731,-7.7339,-7.7364,-7.7448,-7.748,-7.71,-7.7101,-7.7101,0,-7.6473,-7.6594,-7.6546,-7.6643,-7.6677,-7.6585,-7.6702,-7.6724,-7.6771,-7.6795,-7.673,-7.6872,-7.6883,-7.7033,-7.7093,-7.7119,-7.7147,-7.7077,-7.7339,-7.7364,-7.7387,-7.7466,-7.7499,-7.7111,-7.711,-7.7109,-7.7108,0,-7.6749,-7.6835,-7.6926,-7.6975,-7.702,-7.7127,-7.7093,-7.7144,-7.7103,-7.7089,-7.7211,-7.7222,-7.728,-7.7314,-7.7275,-7.7459,-7.7421,-7.735,-7.7232,-7.7434,-7.7507,-7.7537,-7.7126,-7.7122,-7.7119,-7.7116,0,0,-7.7079,-7.7102,-7.7136,-7.7156,-7.7183,-7.7246,-7.7349,-7.7408,-7.7451,-7.7488,-7.7569,-7.767,-7.7603,-7.7633,-7.7595,-7.767,-7.7861,-7.7588,-7.7588,-7.7635,-7.8059,-7.811,-7.8146,-7.7819,-7.7824,-7.7829,-7.8056,0,-7.731,-7.7487,-7.7447,-7.762,-7.7696,-7.7611,-7.77,-7.7724,-7.7715,-7.7777,-7.7766,-7.7836,-7.7745,-7.7762,-7.7833,-7.7823,-7.7944,-7.7806,-7.789,-7.7893,-7.7881,-7.8185,-7.8238,-7.8452,-7.8084,-7.8089,-7.8093,0,-7.7602,-7.765,-7.7832,-7.7845,-7.7875,-7.7956,-7.8006,-7.8068,-7.8094,-7.8081,-7.8116,-7.8063,-7.8162,-7.8048,-7.8181,-7.8088,-7.8121,-7.8121,-7.8128,-7.8129,-7.8002,-7.819,-7.8519,-7.855,-7.8138,-7.8135,-7.8131,0,-7.7819,-7.793,-7.8052,-7.8073,-7.8092,-7.815,-7.8161,-7.818,-7.8218,-7.8263,-7.8286,-7.8342,-7.8371,-7.8414,-7.8377,-7.8298,-7.8515,-7.8399,-7.8504,-7.8505,-7.8549,-7.8546,-7.8883,-7.8579,-7.8579,-7.8578,-7.8577,0,-7.8077,-7.819,-7.8149,-7.8224,-7.8347,-7.8301,-7.8424,-7.8424,-7.8443,-7.8514,-7.8445,-7.8513,-7.8463,-7.8526,-7.8498,-7.861,-7.8625,-7.8616,-7.8606,-7.8619,-7.862,-7.8635,-7.8617,-7.8587,-7.8585,-7.8583,-7.8582,0,-7.8338,-7.8316,-7.8442,-7.8452,-7.8457,-7.8547,-7.8553,-7.8621,-7.8608,-7.8699,-7.8718,-7.8696,-7.8767,-7.8736,-7.8811,-7.8792,-7.8935,-7.8908,-7.8926,-7.8917,-7.9023,-7.9011,-7.9378,-7.9421,-7.9095,-7.9098,-7.91,0,-7.8502,-7.8587,-7.8606,-7.865,-7.8666,-7.8737,-7.8776,-7.8734,-7.8777,-7.8814,-7.8877,-7.8942,-7.8991,-7.9108,-7.9098,-7.9154,-7.9125,-7.925,-7.9132,-7.9142,-7.9121,-7.9114,-7.912,-7.9271,-7.9275,-7.9278,-7.928,0,-7.8794,-7.8779,-7.8839,-7.8896,-7.8945,-7.8987,-7.9022,-7.9062,-7.9021,-7.9073,-7.9145,-7.9184,-7.9261,-7.9325,-7.9375,-7.9383,-7.9324,-7.9319,-7.9345,-7.9356,-7.9361,-7.9355,-7.8985,-7.9309,-7.9306,-7.9304,-7.9302,-7.9301,-7.9007,-7.9078,-7.9103,-7.9171,-7.9194,-7.923,-7.9293,-7.9289,-7.935,-7.9409,-7.9382,-7.9465,-7.9487,-7.9548,-7.9565,-7.9628,-7.9578,-7.9618,-7.9626,-7.9636,-7.9647,-7.9357,-7.9637,-7.9636,-7.9636,-7.9635,-7.9634,0,-7.9291,-7.9304,-7.9368,-7.942,-7.9474,-7.9419,-7.9455,-7.9503,-7.9578,-7.9605,-7.9656,-7.9738,-7.9801,-7.9797,-7.9854,-7.9905,-7.9879,-7.9921,-7.9913,-7.9916,-7.9691,-7.966,-7.994,-7.994,-7.994,-7.994,-7.994,-7.994,-7.9445,-7.9561,-7.9549,-7.9675,-7.9686,-7.9768,-7.9793,-7.9825,-7.9846,-7.9942,-7.9994,-7.9992,-8.0006,-8.0063,-8.0117,-8.0114,-8.0136,-8.0187,-8.0174,-7.9962,-7.9932,-7.9903,-7.9873,-8.0194,-8.0194,-8.0392,-8.0394,-8.0396]},{"header":{"parameterUnit":"m.s-1","parameterCategory":1,"la1":30.2991,"la2":30.254,"lo1":-89.0895,"lo2":-89.0444,"dy":0.0017,"dx":0.0017,"nx":28,"ny":28,"refTime":"2023-09-03T09:00:00:Z","depth":0,"parameterNumber":3,"parameterNumberName":"V-component_of_WINDS"},"data":[0,0,0,0,0,0,0,0,0,0,0,0,0,0,0,0,0,0,0,0,0,0,0,0,0,0,0,0,0,0,0,0,0,0,0,0,0,0,0,0,0,0,0,0,0,0,0,0,0,0,0,0,0,0,0,0,0,0,1.7893,1.7897,0,1.82,1.8203,1.8207,1.831,1.8309,1.8308,1.8307,1.862,1.8629,1.8639,0,0,0,0,0,0,0,0,0,0,0,0,0,1.74,1.7409,1.7893,1.7897,1.7901,1.8199,1.8204,1.8208,1.8311,1.8309,1.8308,1.8306,1.8617,1.8628,1.864,0,0,0,0,0,0,0,0,0,0,0,0,0,1.7651,1.7412,1.7892,1.7988,1.8,1.8198,1.8204,1.8209,1.8311,1.8309,1.8307,1.8305,1.8613,1.8627,1.8641,1.8767,0,0,1.8685,1.8691,0,0,0,0,0,0,0,0,1.7637,1.7669,1.797,1.7982,1.7995,1.8215,1.8145,1.8396,1.8311,1.8193,1.8307,1.8304,1.8487,1.8511,1.8573,1.8782,1.8795,1.8686,1.8695,1.8701,1.8705,0,0,0,0,0,0,0,1.7619,1.7657,1.8014,1.7974,1.799,1.8017,1.8051,1.8193,1.8347,1.8203,1.8211,1.8246,1.8493,1.8559,1.8581,1.88,1.8686,1.8698,1.8707,1.8713,1.9134,1.9137,0,0,0,0,0,0,1.7586,1.7641,1.8005,1.8024,1.7808,1.8027,1.8065,1.8146,1.8345,1.8374,1.8247,1.825,1.8536,1.8564,1.8593,1.8758,1.8701,1.8714,1.8722,1.9132,1.9135,1.9138,0,0,0,0,0,0,1.7575,1.7617,1.7992,1.7835,1.7885,1.8038,1.8128,1.8153,1.8219,1.8379,1.8407,1.8286,1.8535,1.8572,1.8725,1.877,1.8721,1.8734,1.9129,1.9133,1.9136,1.9085,0,0,0,0,0,0,1.756,1.7612,1.766,1.7835,1.7893,1.8118,1.8131,1.8161,1.8244,1.825,1.8423,1.845,1.8537,1.8703,1.8739,1.8788,1.8745,1.9125,1.9131,1.9135,1.9083,1.9087,1.9089,0,0,0,0,0,1.7542,1.7632,1.7662,1.7705,1.7956,1.812,1.8153,1.8251,1.8246,1.8298,1.8401,1.8444,1.8759,1.8717,1.8759,1.8813,1.9123,1.9129,1.9135,1.9082,1.9086,1.9089,0,0,0,0,0,0,1.7456,1.7656,1.7692,1.7841,1.7963,1.8137,1.8203,1.8252,1.8377,1.8377,1.8494,1.8533,1.8677,1.876,1.8711,1.8949,1.8944,1.8958,1.8889,1.8894,1.8897,1.8874,1.8757,0,0,0,0,0,1.7455,1.7571,1.774,1.7855,1.7915,1.8048,1.8123,1.819,1.832,1.8372,1.8487,1.8612,1.8741,1.8822,1.8948,1.9096,1.9138,1.9155,1.9158,1.916,1.9171,1.9261,1.9272,1.9157,1.9157,1.9157,0,0,1.7453,1.7577,1.7642,1.7841,1.7943,1.8063,1.8091,1.8214,1.8305,1.8391,1.8543,1.8631,1.878,1.8932,1.9005,1.9006,1.9212,1.9167,1.9167,1.9178,1.9268,1.9279,1.9289,1.9161,1.9161,1.916,0,0,1.7511,1.7614,1.7725,1.7828,1.7983,1.8073,1.8099,1.8268,1.8331,1.8485,1.8554,1.8664,1.888,1.8985,1.9066,1.9171,1.9217,1.9209,1.9225,1.9311,1.9321,1.9329,1.937,1.9383,1.9219,1.9219,1.9219,0,1.7488,1.767,1.7775,1.7897,1.7985,1.807,1.8185,1.8279,1.8467,1.8527,1.8526,1.8804,1.8909,1.909,1.9116,1.9178,1.9214,1.9189,1.9311,1.932,1.933,1.9371,1.9385,1.9218,1.9218,1.9218,1.9218,0,1.7637,1.7763,1.7833,1.8016,1.8111,1.8228,1.8353,1.8437,1.8497,1.8587,1.8746,1.8877,1.9033,1.9081,1.9138,1.9272,1.9269,1.9287,1.9284,1.9338,1.9378,1.9394,1.9215,1.9216,1.9216,1.9217,0,0,1.7646,1.7889,1.7913,1.8,1.818,1.828,1.8403,1.8558,1.863,1.8758,1.8867,1.9051,1.9072,1.9165,1.9236,1.9311,1.9392,1.9323,1.9328,1.9334,1.9552,1.9537,1.9553,1.9423,1.9427,1.9429,1.954,0,1.7729,1.7953,1.8054,1.8233,1.8353,1.8439,1.8548,1.8671,1.876,1.8877,1.8975,1.9106,1.9121,1.9179,1.9257,1.9365,1.9437,1.9358,1.9528,1.9532,1.9489,1.9574,1.9558,1.9656,1.9556,1.9559,1.9561,0,1.7854,1.7986,1.8178,1.835,1.8404,1.8499,1.8653,1.8762,1.8906,1.8966,1.9072,1.9142,1.9278,1.9265,1.9457,1.9401,1.9477,1.9541,1.9547,1.9567,1.955,1.9599,1.9689,1.9705,1.9586,1.9584,1.9582,0,1.7846,1.8071,1.8216,1.8287,1.849,1.8556,1.8644,1.8787,1.8875,1.901,1.9069,1.9216,1.9298,1.9412,1.952,1.9501,1.9703,1.9698,1.9759,1.9756,1.9797,1.9794,1.9904,1.9843,1.9843,1.9842,1.9842,0,1.7929,1.8043,1.8216,1.8305,1.8438,1.8555,1.8684,1.8778,1.8905,1.9016,1.9099,1.9202,1.9339,1.946,1.9546,1.9694,1.9729,1.9783,1.9805,1.9777,1.977,1.9829,1.9825,1.9846,1.9845,1.9845,1.9844,0,1.7941,1.806,1.8225,1.8406,1.8455,1.8545,1.8701,1.8793,1.8888,1.9028,1.9068,1.9217,1.9365,1.9485,1.9677,1.9735,1.9891,1.9914,1.9842,1.9854,1.9909,1.9903,2.0062,2.0091,2.0007,2.0008,2.0009,0,1.7986,1.8077,1.827,1.8351,1.8438,1.8567,1.866,1.878,1.8873,1.9047,1.9119,1.9273,1.9402,1.9635,1.9761,1.991,1.994,1.9985,1.9962,1.9933,1.9945,1.9938,1.995,1.9987,1.9988,1.9988,1.9988,0,1.8056,1.8112,1.8242,1.8394,1.8503,1.8628,1.8755,1.8817,1.8962,1.9062,1.9215,1.9316,1.9515,1.9668,1.9832,1.9925,1.9982,1.9995,2.0017,1.999,1.9946,1.9974,1.9851,1.999,1.999,1.999,1.999,1.999,1.8088,1.8175,1.8326,1.847,1.8579,1.8698,1.8795,1.8904,1.9034,1.9206,1.9269,1.9427,1.9575,1.9801,1.9895,2.0022,2.0028,2.0059,2.0068,2.0074,2.0073,1.9925,2.0052,2.0052,2.0052,2.0052,2.0052,0,1.8165,1.8267,1.8398,1.8576,1.869,1.8736,1.8881,1.8974,1.9112,1.9245,1.9373,1.9551,1.9702,1.9842,2.0001,2.0076,2.0106,2.0113,2.011,2.0131,2.0057,2.0023,2.0086,2.0086,2.0086,2.0086,2.0086,2.0086,1.8218,1.8369,1.8445,1.8653,1.8756,1.8912,1.8992,1.9103,1.9211,1.9407,1.9534,1.9625,1.9763,1.9933,2.0074,2.0112,2.0168,2.0169,2.0213,2.0141,2.0136,2.0131,2.01,2.0179,2.0179,2.0278,2.0279,2.028]}]]